Карточка аэропорта UHSS

Внимание!
Информация на этой странице в стадии наполнения.
Если вы не увидели какой-то информации, или заметили неточность - пожалуйста сообщите нам!
Спасибо!
Команда RU-STAFF
Название аэропортаХомутово
Название аэропорта (англ.)Khomutovo
Превышение59 ft. (18 m.)
Координаты46°53.316', 142°43.020000000001'
Высота перехода1600m
Эшелон переходаQFE>=758mm: FL70; 758mm>QFE>=731mm: FL80; QFE<731mm: FL90
Коды ответчика6601-6627
Зона ОрВДХабаровск РПИ (UHHH)
Данные METARUHSS 251030Z 35008MPS 9999 SCT008 BKN015CB 06/05 Q1005 R01/70D NOSIG RMK MT OBSC QFE752/1003
Проноз погоды (TAF)UHSS 242000Z 2421/2603 36006MPS 9999 -SHRA BKN025CB BECMG 2506/2508 NSW
NOTAMshow/hide NOTAM
AWOS   TABLE

Информация о ВПП

ВПП Длина ВПП (м.) Покрытие Курс ВПП Частота ILS
013401Железобетон12109.5
193401Железобетон192111.7

Диспетчерские позиции

Позывной Наименование органа УВД Частота
UHSS_TWRЮжно-Сахалинск−Старт122.0
UHSS_R_APPЮжно-Сахалинск−Круг120.6



Спутниковое изображение